TDO SPACECRAFT (44482 NORAD) Tracking and Keplerian Element Data

This shows tracking and keplerian element data for the satellite.

Feedback or suggestion? Click here.




ElementValue
Catalog44482
NameTDO SPACECRAFT
Epoch Orbit0
Epoch Day220.65883595
Epoch Year2019
RAAN299.6265
Inclination26.4221
Eccentricity0.7268982
Argument of Perigee180.1991
Mean Anonmoly179.5301
Mean Motion2.31890047
Decay Rate-4.21E-06
L11 44482U 19051B 19220.65883595 -.00000421 00000-0 00000+0 0 9998
L22 44482 26.4221 299.6265 7268982 180.1991 179.5301 2.31890047 01

Live tracking and technical data element details for TDO SPACECRAFT (NORAD 44482). TDO SPACECRAFT can be tracked NOW for your location showing map with azimuth and elevation plus other details from your city location.

Track the satellite on the map from your city or location and see movement details for azimuth, elevation, latitude, longitude, range, height, and movement on the map or in text.







IsCatalogInMostPopularTable: catalog: 44482, numindb: 2
Update: records affected: 1



GetName: 44482 TDO SPACECRAFT

Hit Count: updated at: Wed, 21 Aug 2019 11:11:54 GMT